Regional Weather Roundup
Issued by NWS

Home | Current Version | Previous Version | Text Only | Print | Product List | Glossary On
Versions: 1 2 3 4 5 6 7 8 9 10 11 12 13 14 15 16 17 18 19 20 21 22 23 24 25 26 27 28
000
ASUS45 KSLC 231710
RWRUT

UTAH REGIONAL WEATHER ROUNDUP
NATIONAL WEATHER SERVICE SALT LAKE CITY UT
1000 AM MST THU NOV 23 2017

UTZ001>011-023>025-231800-

NORTHERN UTAH

CITY           SKY/WX    TMP DP  RH WIND       PRES   REMARKS
BRIGHAM CITY   PTSUNNY   45  40  84 CALM      30.26F
HILL AFB       CLOUDY    53  39  59 SE8       30.27S
LOGAN          MOSUNNY   41  39  93 W5        30.25F
OGDEN          PTSUNNY   51  40  65 S6        30.26F
SALT LAKE CITY CLOUDY    56  41  57 VRB6      30.26F
TOOELE VALLEY  CLOUDY    46  43  87 CALM      30.27R
WENDOVER       CLOUDY    43  36  76 CALM      30.27F
HEBER CITY       N/A     39  37  93 CALM      30.34S
WEST JORDAN    CLOUDY    54  42  62 S13       30.28S

$$

UTZ011>015-024>027-231800-

CENTRAL/NORTHEAST UTAH

CITY           SKY/WX    TMP DP  RH WIND       PRES   REMARKS
PROVO AIRPORT  PTSUNNY   47  40  76 CALM      30.31F
MOAB/CANYONLAN PTSUNNY   46  26  45 CALM      30.35F
DELTA          PTSUNNY   50  36  57 CALM      30.31S
PRICE          MOSUNNY   49  34  56 CALM      30.37F
ROOSEVELT      CLOUDY    43  32  65 CALM      30.37F
VERNAL         CLOUDY    45  32  60 CALM      30.35F

$$

UTZ013>016-019>022-027-231800-

SOUTHERN UTAH

CITY           SKY/WX    TMP DP  RH WIND       PRES   REMARKS
BRYCE CANYON   SUNNY     49  28  44 CALM      30.45S
CEDAR CITY     PTSUNNY   47  33  58 NE5       30.33F
MILFORD        MOSUNNY   51  37  58 S12       30.32S
ST GEORGE      PTSUNNY   50  32  50 CALM      30.30F
HANKSVILLE     PTSUNNY   41  21  45 CALM      30.41R
BLANDING         N/A     54  32  43 SE7       30.44S

$$

REGIONAL REPORTS     COLORADO/ARIZONA

CITY           SKY/WX    TMP DP  RH WIND       PRES   REMARKS
CRAIG, CO      CLOUDY    39  34  82 CALM      30.37F
GRAND JUNCTION CLOUDY    47  35  63 SE9       30.36F
RIFLE, CO      CLOUDY    39  34  82 CALM      30.41F
MONTROSE, CO   CLOUDY    45  33  63 S3        30.42F
CORTEZ, CO     CLOUDY    47  29  49 E3        30.39S
COLORADO CITY    N/A     57  34  41 CALM      30.37S
PAGE, AZ       MOSUNNY   50  31  48 CALM      30.35F
GRAND CANYON   SUNNY     62  29  28 E3        30.40F
KINGMAN, AZ    SUNNY     70  32  24 N3        30.24S
FLAGSTAFF, AZ  SUNNY     55  30  38 CALM      30.42F

$$

REGIONAL REPORTS    NEVADA/IDAHO/WYOMING

CITY           SKY/WX    TMP DP  RH WIND       PRES   REMARKS
LAS VEGAS, NV  MOSUNNY   66  39  37 CALM      30.19S
ELY, NY        CLOUDY    50  33  52 S6        30.35F
ELKO, NV       PTSUNNY   38  36  92 CALM      30.29S
POCATELLO, ID  SUNNY     47  42  83 N8        30.17F
BURLEY, ID     CLOUDY    58  42  55 W7        30.15R
FORT BRIDGER,    N/A     50  34  54 W3        30.34F
EVANSTON, WY   CLOUDY    44  38  79 SW12      30.33S
ROCK SPRINGS,  CLOUDY    50  35  56 SW9       30.30S
KEMMERER, WY   CLOUDY    41  36  81 CALM      30.32F

$$




USA.gov is the U.S. government's official web portal to all federal, state and local government web resources and services.